RADUGA-1 3 [-]

Last updated on Nov. 12, 2019, 4:19 a.m. UTC

1 22981U 94008A   19315.12666862 -.00000191  00000-0  00000+0 0  9990
2 22981  14.9364   7.7794 0002877 340.2339 190.8424  1.00327698 94347
UTC
Height (km)
Latitude
Longitude
Inclination
Orbital Period
UTC large
Height (km)
Speed (km/s)
/
Latitude / Longitude
Inclination (degrees)
Orbital Period (minutes)
Azimuth
Elevation
Range (km)
Doppler Factor
iOS Compass Heading
iOS Angle

Next 30 passes for location: Hong Kong

Rise time Rise Azimuth (degrees) Set time Set Azimuth (degrees) Duration Max altitude (degrees)

No matching passes for this satellites